DECAYED

FENGYUN 1C DEB, 29903 (Decayed)

Orbit data source: Space-Track

FENGYUN 1C DEB, 29903 was space debris in SSO originally from a launch on Mon, 10 May 1999 UTC launched from the Taiyaun Space Center, China (TSC). Fengyun 1C debris stems from the Chinese weather satellite Fengyun-1C, which was intentionally destroyed by a Chinese anti-satellite missile in 2007. This event dramatically increased the amount of space debris, with thousands of trackable fragments posing hazards to satellites and human spaceflight. The Fengyun 1C debris cloud has become a focal point in discussions about space sustainability and the need for international regulations to prevent the creation of new debris.

Not visible in the next 10 days
Identifier
29903, 1999-025GZ
Orbit
Decayed
Country
Flag of CNCN / PRC
Related business
Manufacturer
Unknown
Mission
Decayed spacecraft
Bus & Motor
Unknown
Mass
Unknown
Launch date (UTC)
1999-05-10 (27 years ago)
Launch vehicle
Unknown
Launch site
Taiyaun Space Center, China (TSC)
Object type
Payload
Rocket body
Debris
Shape & HBR
Unknown shape, 0.1 m
Radar Cross Section
Medium (>0.1 m² and <1 m²)

Expand to show TLE details & history
Last TLE update: 1 year ago

TLE from 1 year ago
0 FENGYUN 1C DEB
1 29903U 99025GZ  25115.86570981  .13986078  33828-5  85181-2 0  9992
2 29903  98.9065 270.3326 0019399 297.8795  62.0522 16.17705547967027
Epoch: 2025-04-25T20:46Z
TLE epoch observation values (Epoch: 2025-04-25T20:46:37.327Z)
Latitude
-0.00008°
Longitude
104.56043°
Altitude
222.975 km
Speed
7.776 km/s
True Right ascension
18h 01m 19s
True Declination
0° 00' 00"
Sunlit
Object was in full shadow at epoch
Visualization orbit readout
Latitude
Unknown
Longitude
Unknown
Altitude
Unknown
Speed
Unknown
Apparent Right ascension
Unknown
Apparent Declination
Unknown
Sunlit
N/A
Visualization observer readout
Local Sidereal Time
21:51:56
Azimuth
Unknown
Elevation
Unknown
Doppler factor
Unknown
Orbital elements
Apogee altitude
235.504 km
Perigee altitude
209.894 km
Semi-major axis
6,600.836 km
Eccentricity
0.00194
Inclination
98.9065°
RAAN
270.3326°
Arg. of periapsis
297.8795°
True anomaly
62.24879°
Mean anomaly
62.0522°
Eccentric anomaly
62.15047°
Mean motion
4.04711 °/min
Orbital period
88.95 mins
BSTAR
0.0085181
Loading maneuver chart data...
Computing Atmospheric mass density...
Loading historical data...
Loading historical data...
Loading historical data...
Loading historical data...
Loading historical data...
Loading historical data...
Loading historical data...

Documentation

Showing up to 5 results
|